Location: Ammerl�gen
(47.2167°N, 9.6000°E)
Time: 09:22:43
(UTC+00:00)

Iridium 4 Rocket - Pass Details

Date: 02 August 2021
Orbit: 584 x 904 km, 86.9° (Epoch: 18 September)

Event Time Altitude Azimuth Distance (km) Brightness Sun altitude
Rises 00:17:19 0° 3° (N) 3,430 8.2 -24.1°
Reaches altitude 10° 00:19:51 10° 10° (N) 2,525 7.3 -24.0°
Maximum altitude 00:25:16 41° 80° (E) 1,284 4.8 -23.8°
Enters shadow 00:28:05 25° 132° (SE) 1,723 5.0 -23.6°
